Regional Weather Roundup
Issued by NWS Midland/Odessa, TX

Skip options and go directly to product.
Home | Oldest Version | Previous Version | Current Version | All | Text Only | Save Text | Print | Product List | Glossary Off

Skip product version selection by date and time.   

750
ASUS44 KMAF 182310
RWRMAF
MIDLAND AREA WEATHER ROUNDUP
NATIONAL WEATHER SERVICE MIDLAND TX
600 PM CDT THU SEP 18 2014

...IN SOUTHWEST TEXAS AND SOUTHEAST NEW MEXICO...

CITY           SKY/WX    TMP DP  RH WIND       PRES   REMARKS
ALPINE         CLOUDY    74  64  70 NE9       30.01F
ANDREWS        CLOUDY    73  67  83 E10       29.95R
ARTESIA        NOT AVBL
BIG SPRING     MOSUNNY   77  69  77 NE14G22   29.94R
CARLSBAD       CLOUDY    77  69  76 E3        29.91S
DRYDEN           N/A     89  69  51 E13       29.81S
FORT STOCKTON  CLOUDY    73  69  87 E6        29.86F
GUAD PASS      CLOUDY    68  63  84 E22       30.03S
HOBBS          PTSUNNY   73  68  83 E14       29.96S
MARFA          PTSUNNY   73  63  68 NE20G25   29.97F
MIDLAND AIRPK  PTSUNNY   74  69  84 E12       29.93R
MIDLAND INTL   PTSUNNY   73  70  90 NE15      29.91R
ODESSA         LGT RAIN  73  70  90 E10       29.93R
PECOS          CLOUDY    85  66  53 NE15G21   29.84S
PRESIDIO       FAIR      93  62  36 W3        29.77F
SEMINOLE       PTSUNNY   73  66  78 E10       29.96S
SNYDER         PTSUNNY   71  68  90 E14       29.94S
WINK           PTSUNNY   77  69  76 NE13G22   29.87S
$$
...OTHER STATIONS IN TEXAS...

CITY           SKY/WX    TMP DP  RH WIND       PRES   REMARKS
ABILENE        CLOUDY    71  69  93 E8        29.91F
AMARILLO       PTSUNNY   73  60  63 S15       30.00F
AUSTIN         CLOUDY    84  74  71 NE14      29.82R
BROWNSVILLE    SUNNY     87  76  69 SE14      29.78R
CORPUS CHRISTI PTSUNNY   87  75  67 SE15      29.78R
DALLAS FTW     CLOUDY    85  69  58 E9        29.85R
DEL RIO        SUNNY     91  70  49 E9        29.75F
EL PASO        CLOUDY    70  66  87 N14       29.92S
HOUSTON INT    CLOUDY    78  74  87 SE12      29.86R
LUBBOCK        CLOUDY    71  65  81 SE12      29.96S
SAN ANGELO     LGT RAIN  75  72  90 NE9       29.89S
SAN ANTONIO    PTSUNNY   92  68  45 SE9       29.80R
WACO           CLOUDY    79  73  82 SE15      29.86R
WICHITA FALLS  NOT AVBL
$$
...OTHER LOCATIONS IN NEW MEXICO...

CITY           SKY/WX    TMP DP  RH WIND       PRES   REMARKS
ALAMAGORDO     CLOUDY    68  63  83 CALM      29.97F
ALBUQUERQUE    MOSUNNY   81  50  33 S8        29.97F
CANNON AFB     PTSUNNY   68  68  99 SE12      30.01S
CLOVIS           N/A     68  63  83 SE12      30.02F
HOLLOMAN AFB   LGT RAIN  68  65  91 CALM      29.96S
ROSWELL        CLOUDY    76  64  66 S8        29.93F
RUIDOSO        CLOUDY    61  54  77 SE3       30.13S
SANTA FE       SUNNY     82  44  26 S21       30.01F
TRUTH OR CONSE CLOUDY    70  60  70 CALM      29.99S
TUCUMCARI      MOSUNNY   77  61  57 S15       29.96F
$$

USA.gov is the U.S. government's official web portal to all federal, state and local government web resources and services.